Morris, IL

12:11 AM CDT on March 24, 2017 (GMT -0500)
Morris

Weather History for KC09 - November, 2012

Change the Weather History Date:

Sunday, November 18, 2012

  Actual Average (KARR) Record (KARR)
Temperature  
Mean Temperature 43 °F -  
Max Temperature 57 °F 44 °F 71 °F (1999)
Min Temperature 29 °F 28 °F 9 °F (2014)
Degree Days  
Heating Degree Days 22    
Moisture  
Dew Point 33 °F    
Average Humidity 69    
Maximum Humidity 100    
Minimum Humidity 39    
Precipitation  
Precipitation 0.00 in - - ()
Sea Level Pressure  
Sea Level Pressure 30.37 in    
Wind  
Wind Speed 4 mph (SE)    
Max Wind Speed 9 mph    
Max Gust Speed -    
Visibility 8 miles    
Events      
Averages and records for this station are not official NWS values.
T = Trace of Precipitation, MM = Missing Value Source: NWS Daily Summary

Daily Weather History Graph

Daily Weather History Graph

Search for Another Location

Airport or City:

Trip Planner

Search our weather history database for the weather conditions in past years. The results will help you decide how hot, cold, wet, or windy it might be!

Date:

Astronomy

Nov. 18, 2012 Rise Set
Actual Time 6:46 AM CST 4:31 PM CST
Civil Twilight 6:16 AM CST 5:01 PM CST
Nautical Twilight 5:42 AM CST 5:34 PM CST
Astronomical Twilight 5:09 AM CST 6:07 PM CST
Moon 11:12 AM CST (11/18) 9:51 PM CST (11/18)
Length of Visible Light 10h 44m
Length of Day
9h 44m
Waxing Crescent, 30% of the Moon is Illuminated
Nov 18
Waxing Crescent
Nov 20
First Quarter
Nov 28
Full
Dec 6
Last Quarter
Dec 13
New

Hourly Weather History & Observations

Time (CST) Temp. Windchill Dew Point Humidity Pressure Visibility Wind Dir Wind Speed Gust Speed Precip Events Conditions
12:15 AM 35.4 °F - 30.6 °F 82% 30.43 in 7.0 mi Calm Calm - N/A   Clear
12:35 AM 35.1 °F - 30.9 °F 85% 30.42 in 7.0 mi Calm Calm - N/A   Clear
12:55 AM 34.5 °F 31.6 °F 30.2 °F 84% 30.43 in 7.0 mi ENE 3.5 mph - N/A   Clear
1:15 AM 34.0 °F 31.0 °F 30.7 °F 88% 30.43 in 5.0 mi ENE 3.5 mph - N/A   Clear
1:35 AM 33.4 °F 30.4 °F 30.4 °F 89% 30.43 in 5.0 mi ENE 3.5 mph - N/A   Clear
1:55 AM 32.9 °F - 29.5 °F 87% 30.43 in 5.0 mi Calm Calm - N/A   Clear
2:15 AM 33.6 °F 30.6 °F 31.1 °F 90% 30.43 in 5.0 mi ENE 3.5 mph - N/A   Clear
2:35 AM 34.0 °F 28.8 °F 30.9 °F 89% 30.42 in 5.0 mi East 5.8 mph - N/A   Clear
2:55 AM 34.0 °F 29.8 °F 30.9 °F 89% 30.42 in 5.0 mi East 4.6 mph - N/A   Clear
3:15 AM 32.2 °F 27.7 °F 29.7 °F 90% 30.41 in 5.0 mi East 4.6 mph - N/A   Clear
3:35 AM 29.8 °F - 26.8 °F 88% 30.41 in 5.0 mi Calm Calm - N/A   Clear
3:55 AM 32.5 °F 29.3 °F 32.0 °F 98% 30.41 in 5.0 mi ESE 3.5 mph - N/A   Clear
4:15 AM 32.2 °F 27.7 °F 31.6 °F 98% 30.41 in 5.0 mi ESE 4.6 mph - N/A   Clear
4:35 AM 33.6 °F 29.4 °F 33.1 °F 98% 30.41 in 5.0 mi ESE 4.6 mph - N/A   Clear
4:55 AM 33.4 °F - 32.5 °F 96% 30.42 in 5.0 mi Calm Calm - N/A   Clear
5:15 AM 34.3 °F 31.4 °F 33.8 °F 98% 30.41 in 5.0 mi ESE 3.5 mph - N/A   Clear
5:35 AM 31.8 °F - 30.9 °F 96% 30.41 in 5.0 mi Calm Calm - N/A   Clear
5:55 AM 32.7 °F - 32.7 °F 100% 30.41 in 4.0 mi Calm Calm - N/A   Clear
6:15 AM 32.5 °F 28.1 °F 31.8 °F 97% 30.41 in 5.0 mi ESE 4.6 mph - N/A   Clear
6:35 AM 30.7 °F 27.3 °F 30.4 °F 99% 30.41 in 4.0 mi SE 3.5 mph - N/A   Clear
6:55 AM 32.2 °F - 32.2 °F 100% 30.42 in 2.5 mi Calm Calm - N/A   Clear
7:15 AM 31.5 °F - 31.3 °F 99% 30.42 in 3.0 mi Calm Calm - N/A   Clear
7:35 AM 30.2 °F - 30.2 °F 100% 30.42 in 2.5 mi Calm Calm - N/A   Clear
7:55 AM 32.9 °F - 32.7 °F 99% 30.42 in 3.0 mi Calm Calm - N/A   Clear
8:15 AM 36.3 °F - 34.7 °F 94% 30.42 in 4.0 mi Calm Calm - N/A   Clear
8:35 AM 38.7 °F 36.3 °F 35.2 °F 87% 30.42 in 5.0 mi ESE 3.5 mph - N/A   Clear
8:55 AM 39.7 °F 36.5 °F 34.2 °F 80% 30.42 in 5.0 mi SE 4.6 mph - N/A   Haze
9:15 AM 41.7 °F 39.8 °F 34.7 °F 76% 30.42 in 7.0 mi SSE 3.5 mph - N/A   Clear
9:35 AM 43.3 °F 39.2 °F 35.2 °F 73% 30.41 in 7.0 mi SSE 6.9 mph - N/A   Clear
9:55 AM 45.3 °F 41.6 °F 35.8 °F 69% 30.41 in 10.0 mi SSE 6.9 mph - N/A   Clear
10:15 AM 46.4 °F 42.9 °F 35.1 °F 65% 30.41 in 10.0 mi SSE 6.9 mph - N/A   Clear
10:35 AM 49.3 °F - 34.5 °F 57% 30.41 in 10.0 mi SSE 6.9 mph - N/A   Clear
10:55 AM 50.7 °F - 35.1 °F 55% 30.40 in 10.0 mi SE 6.9 mph - N/A   Clear
11:15 AM 51.8 °F - 35.2 °F 53% 30.39 in 10.0 mi SE 5.8 mph - N/A   Clear
11:35 AM 53.6 °F - 35.6 °F 51% 30.38 in 10.0 mi South 6.9 mph - N/A   Clear
11:55 AM 53.1 °F - 34.9 °F 50% 30.37 in 10.0 mi SSE 4.6 mph - N/A   Clear
12:15 PM 54.7 °F - 35.2 °F 48% 30.36 in 10.0 mi South 8.1 mph - N/A   Clear
12:35 PM 55.2 °F - 35.4 °F 47% 30.36 in 10.0 mi SSE 5.8 mph - N/A   Clear
12:55 PM 55.9 °F - 35.6 °F 46% 30.35 in 10.0 mi South 5.8 mph - N/A   Clear
1:15 PM 56.1 °F - 35.2 °F 45% 30.35 in 10.0 mi SSE 8.1 mph - N/A   Clear
1:35 PM 56.5 °F - 34.9 °F 44% 30.35 in 10.0 mi SSE 8.1 mph - N/A   Clear
1:55 PM 57.0 °F - 35.1 °F 44% 30.34 in 10.0 mi SE 6.9 mph - N/A   Clear
2:15 PM 56.7 °F - 34.9 °F 44% 30.34 in 10.0 mi SSE 9.2 mph - N/A   Clear
2:35 PM 57.9 °F - 34.5 °F 41% 30.34 in 10.0 mi SE 6.9 mph - N/A   Clear
2:55 PM 57.9 °F - 33.1 °F 39% 30.33 in 10.0 mi South 9.2 mph - N/A   Clear
3:15 PM 57.7 °F - 32.9 °F 39% 30.33 in 10.0 mi SSE 8.1 mph - N/A   Clear
3:35 PM 55.4 °F - 33.8 °F 44% 30.33 in 10.0 mi SSE 5.8 mph - N/A   Clear
3:55 PM 53.6 °F - 34.2 °F 48% 30.33 in 10.0 mi SSE 6.9 mph - N/A   Clear
4:15 PM 51.6 °F - 34.3 °F 52% 30.33 in 10.0 mi SE 5.8 mph - N/A   Clear
4:35 PM 51.1 °F - 33.8 °F 52% 30.33 in 10.0 mi ESE 5.8 mph - N/A   Clear
4:55 PM 50.9 °F - 33.1 °F 51% 30.33 in 10.0 mi ESE 6.9 mph - N/A   Clear
5:15 PM 50.9 °F - 32.9 °F 50% 30.34 in 10.0 mi ESE 5.8 mph - N/A   Clear
5:35 PM 50.4 °F - 32.9 °F 51% 30.34 in 10.0 mi ESE 5.8 mph - N/A   Clear
5:55 PM 50.0 °F - 32.5 °F 51% 30.34 in 10.0 mi ESE 5.8 mph - N/A   Clear
6:15 PM 49.3 °F - 33.1 °F 54% 30.34 in 10.0 mi ESE 4.6 mph - N/A   Clear
6:35 PM 47.8 °F - 33.1 °F 57% 30.34 in 10.0 mi SE 6.9 mph - N/A   Clear
6:55 PM 46.8 °F - 33.1 °F 59% 30.34 in 10.0 mi SE 8.1 mph - N/A   Clear
7:15 PM 46.0 °F 42.5 °F 33.1 °F 61% 30.34 in 10.0 mi SE 6.9 mph - N/A   Clear
7:35 PM 46.6 °F - 32.9 °F 59% 30.34 in 10.0 mi SE 5.8 mph - N/A   Clear
7:55 PM 45.7 °F 42.0 °F 32.9 °F 61% 30.34 in 10.0 mi SE 6.9 mph - N/A   Clear
8:15 PM 45.5 °F 43.2 °F 32.5 °F 61% 30.34 in 10.0 mi SE 4.6 mph - N/A   Clear
8:35 PM 46.2 °F 43.3 °F 32.2 °F 58% 30.33 in 10.0 mi ESE 5.8 mph - N/A   Clear
8:55 PM 47.1 °F - 32.2 °F 56% 30.34 in 10.0 mi ESE 3.5 mph - N/A   Clear
9:15 PM 45.9 °F 42.9 °F 32.0 °F 58% 30.33 in 10.0 mi ESE 5.8 mph - N/A   Clear
9:35 PM 43.7 °F 40.3 °F 32.0 °F 63% 30.33 in 10.0 mi ESE 5.8 mph - N/A   Clear
9:55 PM 44.6 °F 42.2 °F 32.4 °F 62% 30.33 in 10.0 mi SE 4.6 mph - N/A   Clear
10:15 PM 44.8 °F 42.4 °F 32.4 °F 62% 30.32 in 10.0 mi SE 4.6 mph - N/A   Clear
10:35 PM 43.3 °F 39.9 °F 32.2 °F 65% 30.31 in 10.0 mi SE 5.8 mph - N/A   Clear
10:55 PM 43.3 °F 40.7 °F 32.5 °F 66% 30.31 in 10.0 mi SE 4.6 mph - N/A   Clear
11:15 PM 43.7 °F 41.1 °F 32.9 °F 66% 30.32 in 10.0 mi SSE 4.6 mph - N/A   Clear
11:35 PM 41.7 °F 38.0 °F 32.9 °F 71% 30.31 in 10.0 mi SSE 5.8 mph - N/A   Clear
11:55 PM 41.0 °F 39.0 °F 32.9 °F 73% 30.31 in 10.0 mi SSE 3.5 mph - N/A   Clear